Location: Wavehorne
(51.0500°N, 0.8333°E)
Time: 20:49:43
(UTC+00:00)

NOSS 2-2 (C) - Pass Details

Date: 28 October 2021
Orbit: 450 x 1756 km, 63.3° (Epoch: 26 November)

Event Time Altitude Azimuth Distance (km) Brightness Sun altitude
Exits shadow 04:32:17 13° 211° (SSW) 2,775 6.5 -20.9°
Drops below altitude 10° 04:33:32 10° 203° (SSW) 3,097 6.9 -20.7°
Sets 04:37:38 0° 187° (S) 4,326 7.8 -20.1°
